Waarnemingen

Advertentie
Mijn weer
Cannes, Frankrijk (7684): temperatuur & dauwpunt: 21.02.2020 06:00:00 - 27.02.2020 06:00:00 (CET)Cannes, Frankrijk (7684): temperatuur 5cm: 21.02.2020 06:00:00 - 27.02.2020 06:00:00 (CET)Cannes, Frankrijk (7684): windsnelheid & windstoten: 21.02.2020 06:00:00 - 27.02.2020 06:00:00 (CET)Cannes, Frankrijk (7684): windrichting: 21.02.2020 06:00:00 - 27.02.2020 06:00:00 (CET)Cannes, Frankrijk (7684): luchtdruk: 21.02.2020 06:00:00 - 27.02.2020 06:00:00 (CET)Cannes, Frankrijk (7684): zicht: 21.02.2020 06:00:00 - 27.02.2020 06:00:00 (CET)Cannes, Frankrijk (7684): neerslag: 21.02.2020 06:00:00 - 27.02.2020 06:00:00 (CET)
Datum & Tijd tt [°C] td [°C] tt 5cm [°C] ff [km/u] ff [kn] fx [km/u] fx [kn] dd ppp [hPa] vv [km] rr [mm]
27.02.2020 06:00:00 3,8 -5,7 -1,1 3 2 10 5 N 1012,5 60 0,0
27.02.2020 05:00:00 4,9 -6,1 1,3 6 3 22 12 N 1011,6 60 0,0
27.02.2020 04:00:00 6,3 -7,0 1,5 8 4 26 14 NO 1011,8 60 0,0
27.02.2020 03:00:00 6,3 -6,7 0,8 7 4 20 11 W 1012,4 60 0,0
27.02.2020 02:00:00 8,1 -7,6 4,5 15 8 27 15 N 1012,2 60 0,0
27.02.2020 01:00:00 8,2 -7,5 3,3 14 8 26 14 W 1012,6 60 0,0
27.02.2020 00:00:00 7,4 -6,7 3,1 10 5 24 13 W 1012,5 60 0,0
26.02.2020 23:00:00 8,1 -6,8 3,8 10 5 35 19 W 1012,9 60 0,0
26.02.2020 22:00:00 8,9 -6,9 6,5 15 8 42 23 WNW 1013,1 60 0,0
26.02.2020 21:00:00 9,3 -7,4 6,3 19 10 41 22 NW 1012,4 60 0,0
26.02.2020 20:00:00 9,1 -6,8 5,6 7 4 45 24 N 1011,7 60 0,0
26.02.2020 19:00:00 9,8 -7,4 7,9 26 14 56 30 NW 1010,5 60 0,0
26.02.2020 18:00:00 10,5 -7,3 9,0 28 15 60 33 WNW 1009,0 60 0,0
26.02.2020 17:00:00 11,3 -6,6 10,8 28 15 74 40 WNW 1007,9 27 0,0
26.02.2020 16:00:00 11,7 -5,3 12,3 30 16 67 36 NW 1007,0 25 0,0
26.02.2020 15:00:00 10,7 -3,1 12,3 39 21 81 44 WNW 1006,4 26 0,0
26.02.2020 14:00:00 13,2 -7,5 13,8 41 22 78 42 NW 1005,5 20 0,0
26.02.2020 13:00:00 14,1 -7,9 16,3 36 20 80 43 WNW 1005,4 20 0,0
26.02.2020 12:00:00 13,3 -3,5 14,2 30 16 74 40 NW 1006,5 38 0,0
26.02.2020 11:00:00 14,5 -1,2 17,3 22 12 48 26 WNW 1005,0 43 0,0
26.02.2020 10:00:00 13,9 -1,3 13,6 17 9 51 27 WNW 1005,3 44 0,0
26.02.2020 09:00:00 12,2 0,0 10,1 27 15 49 26 W 1005,2 56 0,0
26.02.2020 08:00:00 11,6 -0,6 9,6 28 15 61 33 W 1004,7 52 0,0
26.02.2020 07:00:00 11,5 -1,0 9,4 30 16 55 30 W 1003,6 60 0,0
26.02.2020 06:00:00 11,5 0,0 9,4 29 16 59 32 W 1003,9 60 0,0
26.02.2020 05:00:00 12,3 -0,9 10,6 29 15 68 37 W 1003,9 60 0,0
26.02.2020 04:00:00 14,4 -3,4 12,6 34 19 66 36 WNW 1003,4 60 0,0
26.02.2020 03:00:00 14,6 -3,3 11,4 31 17 61 33 WNW 1003,9 60 0,0
26.02.2020 02:00:00 14,0 1,9 11,2 27 14 60 33 W 1003,8 60 0,0
26.02.2020 01:00:00 13,0 4,4 11,2 26 14 55 30 WZW 1004,4 60 0,0
26.02.2020 00:00:00 14,0 4,3 11,1 29 16 53 29 W 1005,2 60 0,0
25.02.2020 23:00:00 13,6 4,7 11,3 24 13 44 24 WZW 1005,9 60 0,0
25.02.2020 22:00:00 13,8 4,4 11,9 27 14 48 26 W 1006,5 60 0,0
25.02.2020 21:00:00 14,4 4,4 12,0 23 12 45 24 W 1006,7 60 0,0
25.02.2020 20:00:00 15,5 3,9 13,0 24 13 49 26 W 1006,5 60 0,0
25.02.2020 19:00:00 16,5 3,5 13,1 19 10 32 17 W 1006,2 60 0,0
25.02.2020 18:00:00 17,4 2,5 14,7 18 10 46 25 W 1005,6 60 0,0
25.02.2020 17:00:00 17,2 2,7 15,6 22 12 50 27 WZW 1006,2 60 0,0
25.02.2020 16:00:00 18,5 0,6 16,9 30 16 46 25 W 1006,7 58 0,0
25.02.2020 15:00:00 19,3 1,7 18,7 26 14 41 22 WZW 1007,3 44 0,0
25.02.2020 14:00:00 15,3 9,9 17,1 7 4 18 10 ZZO 1008,1 20 0,0
25.02.2020 13:00:00 14,8 9,6 21,0 10 5 22 12 ZZO 1009,8 20 0,0
25.02.2020 12:00:00 14,4 8,6 23,4 9 5 16 8 ZZO 1011,0 19 0,0
25.02.2020 11:00:00 14,4 9,4 16,7 6 3 13 7 Z 1011,9 17 0,0
25.02.2020 10:00:00 11,0 8,2 8,5 6 3 12 6 N 1012,6 13 0,0
25.02.2020 09:00:00 7,8 6,7 6,8 7 4 14 7 N 1013,3 11 0,0
25.02.2020 08:00:00 6,8 6,2 4,8 6 3 14 8 N 1013,4 12 0,0
25.02.2020 07:00:00 6,3 5,7 4,7 8 5 14 8 N 1013,6 10 0,0
25.02.2020 06:00:00 6,7 6,0 4,7 8 4 13 7 N 1013,9 12 0,0
25.02.2020 05:00:00 6,8 6,4 3,5 8 5 12 7 N 1014,5 12 0,0
25.02.2020 04:00:00 6,2 5,8 3,1 2 1 12 6 N 1015,0 8 0,0
25.02.2020 03:00:00 6,5 6,1 4,1 7 4 12 6 N 1015,8 9 0,0
25.02.2020 02:00:00 6,8 6,5 2,0 6 3 10 5 N 1016,8 8 0,0
25.02.2020 01:00:00 6,1 5,7 2,0 3 2 4 2 NNW 1017,2 3,6 0,0
25.02.2020 00:00:00 6,6 6,0 2,8 0 0 6 3 N 1017,8 4,7 0,2
24.02.2020 23:00:00 7,1 6,5 2,9 0 0 5 3 N 1018,4 0,7 0,0
24.02.2020 22:00:00 8,2 7,6 3,7 2 1 4 2 N 1018,8 8 0,0
24.02.2020 21:00:00 8,9 8,0 4,2 0 0 3 2 N 1018,8 6 0,0
24.02.2020 20:00:00 10,1 8,7 5,5 0 0 6 3 N 1019,1 13 0,0
24.02.2020 19:00:00 12,1 9,7 6,4 2 1 4 2 NW 1019,2 17 0,0
24.02.2020 18:00:00 12,9 11,0 10,4 3 2 12 6 ZZW 1019,1 19 0,0
24.02.2020 17:00:00 14,5 11,3 15,0 6 3 16 8 ZZO 1019,3 18 0,0
24.02.2020 16:00:00 15,2 11,4 18,9 11 6 21 11 Z 1019,7 20 0,0
24.02.2020 15:00:00 15,8 10,5 19,7 16 9 24 13 Z 1020,2 18 0,0
24.02.2020 14:00:00 16,2 10,7 17,4 15 8 22 12 Z 1020,9 19 0,0
24.02.2020 13:00:00 16,0 8,2 23,4 11 6 17 9 ZZO 1021,8 54 0,0
24.02.2020 12:00:00 16,3 9,9 25,3 8 4 16 9 ZZO 1022,3 60 0,0
24.02.2020 11:00:00 15,9 10,0 20,1 7 4 14 8 Z 1022,6 19 0,0
24.02.2020 10:00:00 13,4 8,9 11,7 6 3 18 10 N 1022,5 20 0,0
24.02.2020 09:00:00 9,1 6,7 5,4 8 4 14 8 N 1022,7 19 0,0
24.02.2020 08:00:00 6,1 4,9 4,3 8 5 15 8 N 1022,5 17 0,0
24.02.2020 07:00:00 5,4 4,4 4,2 9 5 14 7 N 1022,5 18 0,0
24.02.2020 06:00:00 5,7 4,7 4,5 8 5 15 8 N 1022,7 19 0,0
24.02.2020 05:00:00 6,1 5,2 4,9 9 5 14 8 N 1022,6 19 0,0
24.02.2020 04:00:00 6,2 5,3 5,0 8 5 14 7 N 1022,8 17 0,0
24.02.2020 03:00:00 6,5 5,6 5,2 8 4 14 8 N 1023,5 17 0,0
24.02.2020 02:00:00 6,8 5,9 5,6 8 4 13 7 N 1024,0 14 0,0
24.02.2020 01:00:00 7,5 6,4 6,4 9 5 15 8 N 1024,6 13 0,0
24.02.2020 00:00:00 8,1 6,9 6,8 8 4 13 7 N 1024,8 12 0,0
23.02.2020 23:00:00 8,6 7,4 6,1 7 4 11 6 N 1025,1 11 0,0
23.02.2020 22:00:00 9,3 8,2 6,7 6 3 9 5 N 1025,2 12 0,0
23.02.2020 21:00:00 9,4 8,0 7,8 7 4 13 7 N 1025,4 11 0,0
23.02.2020 20:00:00 10,4 8,3 7,4 6 3 9 5 NNO 1025,7 15 0,0
23.02.2020 19:00:00 12,4 9,2 8,7 3 2 12 7 N 1025,5 44 0,0
23.02.2020 18:00:00 13,7 9,3 11,7 5 3 19 10 NNO 1025,2 58 0,0
23.02.2020 17:00:00 15,1 8,6 14,8 9 5 27 14 ONO 1025,3 20 0,0
23.02.2020 16:00:00 15,8 6,8 18,6 11 6 22 12 ONO 1025,5 60 0,0
23.02.2020 15:00:00 16,4 7,6 20,8 9 5 18 10 ONO 1025,9 20 0,0
23.02.2020 14:00:00 16,2 7,7 17,2 6 3 21 11 ONO 1026,6 19 0,0
23.02.2020 13:00:00 16,0 9,9 23,1 10 5 19 10 Z 1027,5 20 0,0
23.02.2020 12:00:00 15,8 9,5 23,9 5 3 14 7 ZZO 1028,6 17 0,0
23.02.2020 11:00:00 13,9 8,3 13,8 5 3 13 7 NNW 1029,1 19 0,0
23.02.2020 10:00:00 9,5 6,0 8,2 9 5 15 8 N 1029,2 20 0,0
23.02.2020 09:00:00 6,8 4,9 4,6 8 4 15 8 N 1029,5 19 0,0
23.02.2020 08:00:00 5,0 3,7 3,5 6 3 14 7 N 1029,7 19 0,0
23.02.2020 07:00:00 4,8 3,6 3,5 7 4 13 7 N 1029,4 18 0,0
23.02.2020 06:00:00 4,9 3,7 3,4 6 3 11 6 N 1029,5 19 0,0
23.02.2020 05:00:00 4,9 3,9 3,5 6 3 14 7 N 1029,5 17 0,2
23.02.2020 04:00:00 5,1 4,1 3,5 9 5 15 8 N 1030,0 18 0,0
23.02.2020 03:00:00 5,4 4,2 4,0 6 3 13 7 N 1030,5 18 0,0
23.02.2020 02:00:00 5,7 4,3 4,5 7 4 13 7 N 1031,2 17 0,0
23.02.2020 01:00:00 6,1 4,7 4,6 6 3 12 7 N 1031,6 16 0,0
23.02.2020 00:00:00 6,7 5,3 5,3 8 5 11 6 N 1032,1 15 0,0
22.02.2020 23:00:00 7,2 5,8 5,6 6 4 11 6 NNW 1032,2 16 0,0
22.02.2020 22:00:00 7,5 6,1 6,1 6 3 14 8 N 1032,4 17 0,0
22.02.2020 21:00:00 8,5 7,0 5,9 6 3 11 6 N 1032,5 15 0,0
22.02.2020 20:00:00 9,6 7,5 6,5 5 3 8 4 N 1032,3 15 0,0
22.02.2020 19:00:00 11,1 8,5 7,7 8 4 11 6 N 1032,0 19 0,0
22.02.2020 18:00:00 13,2 9,8 10,6 5 3 14 8 ZZO 1031,4 58 0,0
22.02.2020 17:00:00 14,4 10,0 14,4 9 5 16 9 ZZO 1031,3 56 0,0
22.02.2020 16:00:00 15,3 9,6 18,7 11 6 18 10 Z 1031,1 20 0,0
22.02.2020 15:00:00 15,4 10,4 20,0 12 6 21 12 ZZO 1031,6 57 0,0
22.02.2020 14:00:00 15,6 10,4 16,5 13 7 21 12 Z 1032,0 56 0,0
22.02.2020 13:00:00 15,6 9,7 22,5 12 6 18 10 ZZO 1032,3 19 0,0
22.02.2020 12:00:00 15,0 9,8 22,6 13 7 19 10 ZZO 1032,3 20 0,0
22.02.2020 11:00:00 15,6 9,0 18,4 8 4 14 8 Z 1032,0 60 0,0
22.02.2020 10:00:00 12,4 6,9 12,1 5 3 12 7 N 1031,7 20 0,0
22.02.2020 09:00:00 9,5 5,5 5,9 6 3 14 7 N 1031,2 45 0,0
22.02.2020 08:00:00 6,9 4,7 5,3 6 4 18 10 N 1030,4 52 0,0
22.02.2020 07:00:00 6,7 4,4 5,5 10 5 16 9 N 1029,7 52 0,0
22.02.2020 06:00:00 7,8 5,3 6,9 7 4 20 11 N 1029,2 54 0,0
22.02.2020 05:00:00 7,6 5,1 6,1 8 4 18 10 NNO 1028,7 49 0,0
22.02.2020 04:00:00 7,0 5,1 5,7 9 5 18 10 N 1028,2 38 0,0
22.02.2020 03:00:00 6,4 5,0 5,0 8 4 14 7 N 1028,1 20 0,0
22.02.2020 02:00:00 6,6 5,5 5,5 9 5 16 8 N 1027,8 16 0,0
22.02.2020 01:00:00 7,4 6,0 6,1 9 5 14 8 N 1027,7 17 0,0
22.02.2020 00:00:00 7,5 6,3 6,3 6 4 13 7 N 1027,7 15 0,0
21.02.2020 23:00:00 7,6 6,4 6,4 8 4 13 7 N 1027,3 14 0,0
21.02.2020 22:00:00 8,1 6,7 6,6 7 4 14 7 NNO 1027,0 15 0,0
21.02.2020 21:00:00 8,7 7,3 6,6 6 4 10 5 N 1026,2 15 0,0
21.02.2020 20:00:00 9,8 7,9 6,3 5 3 10 6 N 1025,9 15 0,0
21.02.2020 19:00:00 11,5 8,2 6,5 3 1 6 4 N 1025,6 51 0,0
21.02.2020 18:00:00 13,4 8,5 9,9 2 1 11 6 O 1024,9 60 0,0
21.02.2020 17:00:00 14,2 9,4 14,2 8 4 20 11 ZO 1024,4 60 0,0
21.02.2020 16:00:00 14,6 9,0 16,2 11 6 20 11 ZO 1024,3 60 0,0
21.02.2020 15:00:00 15,0 8,9 17,8 12 7 18 10 Z 1024,1 20 0,0
21.02.2020 14:00:00 15,1 9,2 18,2 14 7 23 12 Z 1023,8 20 0,0
21.02.2020 13:00:00 15,9 7,9 21,7 14 8 23 12 ZZO 1024,0 20 0,0
21.02.2020 12:00:00 16,3 8,5 20,2 9 5 19 10 ZZO 1024,5 20 0,0
21.02.2020 11:00:00 15,6 8,1 17,1 4 2 15 8 NNW 1024,0 19 0,0
21.02.2020 10:00:00 11,5 6,0 8,2 10 5 19 10 N 1024,0 20 0,0
21.02.2020 09:00:00 7,5 4,3 5,2 8 5 17 9 N 1024,1 43 0,0
21.02.2020 08:00:00 5,4 3,4 3,0 10 6 19 11 N 1023,5 20 0,0
21.02.2020 07:00:00 4,4 2,7 3,0 7 4 16 9 N 1022,7 33 0,0
21.02.2020 06:00:00 4,7 3,0 3,1 10 5 16 9 N 1022,3 34 0,0

tt = temperatuur
td = dauwpunt
tt 5cm = temperatuur 5cm
ff = windsnelheid
fx = windstoten
dd = windrichting
ppp = luchtdruk
vv = zicht
rr = neerslag

Weerstations in de omgeving